Other Public Products
Issued by NWS Grand Forks, ND

Home | Current Version | Previous Version | Graphics & Text | Print | Product List | Glossary On
Versions: 1 2 3 4 5 6 7 8 9 10 11 12 13 14 15 16 17 18 19 20 21 22 23 24 25 26 27 28 29 30 31 32 33 34 35 36 37 38 39 40 41 42 43 44 45 46 47 48 49 50
000
FPUS83 KFGF 041731
OPUFGF
PRAIRIE TO PINES WEATHER ROUNDUP
NATIONAL WEATHER SERVICE EASTERN NORTH DAKOTA/GRAND FORKS ND
1200 PM CDT WED MAY 04 2016

 **SATELLITE DATA USED TO AUGMENT SKY COVER AT AUTOMATED STATIONS**
 *****  WEATHER ACROSS EASTERN NORTH DAKOTA  *****

CITY           SKY/WX    TMP DP  RH WIND       PRES   REMARKS
GRAND FORKS    MOSUNNY   60  36  40 VRB7      30.08F
GRAND FORKS AF SUNNY     59  36  41 VRB2      30.09F
GRAND CITY NWS NOT AVBL
BUXTON           N/A     62  38  40 NW6         N/A
DEVILS LAKE    SUNNY     58  36  43 VRB6      30.09F
FARGO          SUNNY     61  36  39 NW7       30.08F
WAHPETON ARPT  SUNNY     61  30  31 N10G18    30.07F
$$

 *****  WEATHER ACROSS CENTRAL AND WESTERN NORTH DAKOTA  *****

CITY           SKY/WX    TMP DP  RH WIND       PRES   REMARKS
JAMESTOWN      SUNNY     60  34  37 VRB6      30.09F
BISMARCK       SUNNY     69  34  27 S5        30.09F
MINOT          SUNNY     79  34  19 E6        30.02F
MINOT AFB      SUNNY     74  38  27 SW8       30.00F
GARRISON         N/A     71  36  27 VRB6      30.05F
WILLISTON      SUNNY     77  45  32 SW9       30.02F
DICKINSON      SUNNY     74  39  28 SW7       30.05F
HETTINGER      SUNNY     73  41  31 SW8       30.10F
$$

 *****  OTHER OBSERVATIONS NORTHEAST NORTH DAKOTA  *****

CITY           SKY/WX    TMP DP  RH WIND       PRES   REMARKS
WALHALLA       FAIR      59  32  36 NE5       30.07F
LANGDON        FAIR      64  28  25 SW8       30.06F
CAVALIER       FAIR      59  36  41 N3        30.08F
GRAFTON        FAIR      59  34  38 NW6G12    30.10F
CANDO          FAIR      64  32  29 SE7       30.08F
FORT TOTTEN      N/A     61  35  37 W3        29.95S
ROLLA          FAIR      64  28  25 SW13      30.05F
RUGBY          FAIR      66  30  26 SW9G16    30.05F
 ***** THE ABOVE OBSERVATIONS ARE NON NWS ARE NOT QUALITY
        CONTROLLED AND MAY MIS-REPORT RAIN FOR SNOW...
$$

 *****  OTHER OBSERVATIONS SOUTHEAST NORTH DAKOTA *****

CITY           SKY/WX    TMP DP  RH WIND       PRES   REMARKS
COOPERSTOWN    NOT AVBL
VALLEY CITY    FAIR      59  32  36 N8        30.11F
OAKES            N/A    N/A N/A N/A MISG        N/A
GWINNER        FAIR      63  32  31 NW12      30.09F
SHEYENNE NWR     N/A     60  34  38 N10       29.95S
BUFFALO          N/A     60  30  32 N10         N/A
WYNDMERE         N/A     63  36  36 N12         N/A
 ***** THE ABOVE OBSERVATIONS ARE NON NWS ARE NOT QUALITY
       CONTROLLED AND MAY MIS-REPORT RAIN FOR SNOW...
$$

  *****  WEATHER ACROSS NORTHERN MINNESOTA  *****

CITY           SKY/WX    TMP DP  RH WIND       PRES   REMARKS
FLAG ISLAND    SUNNY     50  25  37 CALM      30.05F
WARROAD        SUNNY     54  34  47 E6        30.08S
ROSEAU         SUNNY     57  19  23 N9        30.06F
HALLOCK        SUNNY     59  30  33 NW5       30.08F
THF RVR FALLS  SUNNY     57  25  28 N13       30.08F
HALSTAD        NOT AVBL
FOSSTON        SUNNY     59  25  27 NW10G20   30.07S
BAUDETTE       SUNNY     52  25  35 NW12G20   30.06S
WASKISH        SUNNY     57  23  26 NW6       30.05S
CROOKSTON      SUNNY     59  34  38 N10G18    30.08F
$$
  *****  WEATHER ACROSS CENTRAL AND WEST MINNESOTA  *****

CITY           SKY/WX    TMP DP  RH WIND       PRES   REMARKS
BEMIDJI        SUNNY     56  29  35 N13       30.05S
PARK RAPIDS    SUNNY     58  24  27 N14G20    30.03F
WADENA         SUNNY     59  30  33 N9G22     30.03S
DETROIT LAKES  SUNNY     59  32  36 N7G20     30.06F
MOORHEAD       SUNNY     61  34  36 N13G21    30.08F
FERGUS FALLS   SUNNY     61  36  39 N17       30.03F
ELBOW LAKE     FAIR      58  35  42 W12G17    30.05F
MORRIS MN      SUNNY     63  34  34 N23G30    30.04F
STAPLES        SUNNY     61  25  25 N12G23    30.02F
WHEATON        SUNNY     64  37  36 N12G20    30.08F
$$
  *****  WEATHER ELSEWHERE ACROSS MINNESOTA  *****

CITY           SKY/WX    TMP DP  RH WIND       PRES   REMARKS
DULUTH         SUNNY     56  23  27 N15G21    29.96S
INTRNTL FALLS  SUNNY     52  19  27 N12G18    30.04S
ELY            SUNNY     52  19  28 NW10      29.99R
CLOQUET        SUNNY     57  21  24 N12G22    29.97S
BRAINERD       SUNNY     56  26  31 N14G24    30.03R
HIBBING        SUNNY     52  21  29 N12       29.99S
ALEXANDRIA     SUNNY     60  33  36 N20       30.05S
SAINT CLOUD    SUNNY     61  32  33 NW14G25   29.99S
MINNEAPOLIS    MOSUNNY   60  33  36 N15G26    29.98S
$$

  *****  WEATHER ACROSS SOUTH DAKOTA  *****

CITY           SKY/WX    TMP DP  RH WIND       PRES   REMARKS
SIOUX FALLS    MOSUNNY   61  39  44 NW15      30.09R
BROOKINGS      SUNNY     60  35  39 NW13      30.07S
WATERTOWN      SUNNY     62  33  33 N14G24    30.08S
HURON          SUNNY     61  35  37 NW14      30.11S
SISSETON         N/A     63  34  33 N17G24    30.07F
ABERDEEN       SUNNY     63  34  33 NW12      30.11F
MITCHELL       SUNNY     60  38  43 N13       30.12S
PIERRE         SUNNY     63  35  35 VRB3      30.12S
MOBRIDGE       SUNNY     65  38  36 S6        30.09F
RAPID CITY     SUNNY     71  41  33 S8        30.14S
$$

  *****  SOME WEATHER IN NEARBY STATES *****

CITY           SKY/WX    TMP DP  RH WIND       PRES   REMARKS
GLASGOW MT     SUNNY     75  45  34 S13       29.97F
GREAT FALLS MT SUNNY     75  36  24 SW16G23   29.98F
CHEYENNE WY    SUNNY     66  31  27 CALM      30.26F
SCOTTSBLUFF NE SUNNY     68  41  37 CALM      30.20S
OMAHA NE       MOSUNNY   64  41  42 N16       30.05S
DES MOINES IA  MOSUNNY   62  32  32 NW16G22   29.99R
DAVENPORT IA   MOSUNNY   57  40  52 N21       29.87S
CHICAGO IL     CLOUDY    50  37  61 NW17      29.78R
EAU CLAIRE WI  MOSUNNY   58  33  39 NW17G24   29.93R
LA CROSSE WI   MOSUNNY   59  34  39 NW20      29.90S
$$

  *****  SOME NATIONAL WEATHER *****

CITY           SKY/WX    TMP DP  RH WIND       PRES   REMARKS
LA GUARDIA NY  CLOUDY    51  47  86 NE17      29.77F
RALEIGH NC     MOSUNNY   70  50  49 CALM      29.68F
ATLANTA GA     MOSUNNY   67  44  43 NW9       29.82S
NEW ORLEANS LA MOSUNNY   73  48  41 NW14      29.97F
OKLAHOMA CITY  SUNNY     77  50  38 NW12      30.06S
ALBUQUERQUE NM MOSUNNY   66  30  26 NW5       30.32F
SALT LAKE CITY PTSUNNY   72  29  20 SE10      30.13F
LOS ANGELES CA CLOUDY    58  54  86 W6        29.97S
BOISE ID       PTSUNNY   70  38  31 CALM      29.97F
SEATTLE WA     CLOUDY    54  47  77 N13       30.08S
$$

*** WEATHER ACROSS MANITOBA...SASKATCHEWAN AND ONTARIO ***
                ***ONTARIO***

CITY           SKY/WX    TMP DP  RH WIND       PRES   REMARKS
GERALDTON      LGT SNOW  34  30  86 N9        29.96R VSB 1
THUNDER BAY    PTSUNNY   50  30  46 N12G18    29.97R
SIOUX LOOKOUT  SUNNY     46  23  39 VRB9G17   30.03F
TORONTO        PTSUNNY   59  41  51 SE12      29.70F
BIG TROUT LK   SUNNY     32  19  59 S7        30.06S
PICKLE LAKE    MOSUNNY   43  10  26 N6        30.01F
DRYDEN         SUNNY     48  12  23 N8        30.04S
KENORA         MOSUNNY   52  14  22 VRB5      30.05F
$$
                *** MANITOBA***

CITY           SKY/WX    TMP DP  RH WIND       PRES   REMARKS
BRANDON        PTSUNNY   68  32  26 SW8       30.01F
DAUPHIN        PTSUNNY   70  36  28 SW9       29.93F
ISLAND LAKE    MOSUNNY   46  27  46 E7        30.01F
PILOT MOUND      N/A     61  28  29 SW5         N/A
THE PAS        CLOUDY    64  36  34 SE15      29.78F
THOMPSON       PTSUNNY   54  32  43 S9G24     29.79F
WINNIPEG       MOSUNNY   59  32  36 S7        30.07F
LYNN LAKE      MOSUNNY   64  36  34 SW10      29.67F
CHURCHILL      PTSUNNY   37  28  70 S12       29.81F
GILLAM         PTSUNNY   46  23  39 S16       29.89F
$$
                ***SASKATCHEWAN***

CITY           SKY/WX    TMP DP  RH WIND       PRES   REMARKS
ESTEVAN        PTSUNNY   79  41  25 SW15G22   29.98F
KINDERSLEY     MOSUNNY   77  34  20 W14G21    29.83F
LLOYDMINSTER   MOSUNNY   77  36  22 W15       29.75F
PRINCE ALBERT  MOSUNNY   81  46  30 SW8       29.76F
REGINA         MOSUNNY   82  34  17 SW15G26   29.90F
YORKTON        SUNNY     75  43  31 S8        29.89F  C1F1C2F2C3F3C4F4C5F5C6F6C7F7C8F8C9F9CaFaCbFbCcFcCdFdCe!


USA.gov is the U.S. government's official web portal to all federal, state and local government web resources and services.